SL-8 DEB, 2647

Orbit data source: Space-Track

SL-8 DEB, 2647 is space debris in LEO originally from a launch on Sat, 18 Sep 1965 UTC launched from the Tyuratam Missile And Space Complex (TTMTR). Debris objects in space refer to the collection of defunct objects orbiting the Earth. Examples of debris include non-operational satellites, rocket bodies, and fragments generated from explosions, collisions, or faulty payload assembly.

Loading next visibility...
Identifier
2647, 1965-073L
Orbit
LEO
Last TLE update
18 hours ago
Origin
Manufacturer
Unknown
Mission
Spacecraft
Bus & Motor
Unknown
Mass
Unknown
Launch date (UTC)
1965-09-18 (60 years ago)
Launch vehicle
Unknown
Launch site
Tyuratam Missile And Space Complex (TTMTR)
Object type
Payload
Rocket body
Debris
Shape & HBR
Unknown
Radar Cross Section
Small (<0.1 m²)

Expand to show TLE details & history

TLE from 18 hours ago
0 SL-8 DEB
1 02647U 65073L   25181.78568872 -.00000154  00000-0 -40799-3 0  9992
2 02647  56.0672  46.2144 0186065 318.9060 114.3815 12.43643839 72916
Epoch: 2025-06-30T18:51Z
TLE epoch observation values (Epoch: 2025-06-30T18:51:23.505Z)
Latitude
53.46895°
Longitude
-91.06089°
Altitude
1,560.902 km
Speed
7.064 km/s
True Right ascension
07h 23m 30s
True Declination
53° 19' 16"
Sunlit
Object was in daylight at epoch
Visualization orbit readout
Latitude
29.96467°
Longitude
-0.40341°
Altitude
1,639.326 km
Speed
6.99 km/s
Apparent Right ascension
12h 56m 33s
Apparent Declination
0° 24' 59"
Sunlit
Object is in daylight
Visualization observer readout
Local Sidereal Time
00:14:27
Azimuth
343.719° N
Elevation
-49.352°
Doppler factor
1
Orbital elements
Apogee altitude
1,637.434 km
Perigee altitude
1,344.599 km
Semi-major axis
7,869.154 km
Eccentricity
0.01861
Inclination
56.0672°
RAAN
46.2144°
Arg. of periapsis
318.906°
True anomaly
Unknown
Mean anomaly
114.3815°
Eccentric anomaly
Unknown
Mean motion
3.10922 °/min
Orbital period
115.78 mins
BSTAR
-0.00040799
Loading maneuver chart data...
Loading SW <> Apogee altitude chart data...
Loading historical data...
Loading historical data...
Loading historical data...
Loading historical data...
Loading historical data...
Loading historical data...
Loading historical data...

SL-8 DEB Visibility forecast

Observer location: undefined°, undefined°

Span
Click to sort rows by Start time (UTC) header in descending order
Start Az.
Max El. time (UTC)
Max El. Az.
Max El.
End time (UTC)
End Az.
14 mins2025-07-01 15:46:39.764Z172.403° S2025-07-01 15:53:39.764Z112.091° ESE27.059°2025-07-01 16:00:39.764Z61.352° ENE
16 mins2025-07-01 17:46:39.764Z234.297° WSW2025-07-01 17:53:39.764Z331.353° NNW44.037°2025-07-01 18:02:39.764Z44.153° NE
14 mins2025-07-01 19:49:39.764Z287.482° WNW2025-07-01 19:55:39.764Z338.856° N29.328°2025-07-01 20:03:39.764Z43.021° NE
14 mins2025-07-01 21:53:39.764Z318.918° NNW2025-07-01 21:59:39.764Z7.627° NNE27.758°2025-07-01 22:07:39.764Z68.848° E
18 mins2025-07-01 23:54:39.764Z318.745° NNW2025-07-02 00:02:39.764Z24.411° NE41.086°2025-07-02 00:12:39.764Z116.513° SE
16 mins2025-07-02 01:56:39.764Z301.867° NW2025-07-02 02:04:39.764Z229.33° WSW35.899°2025-07-02 02:12:39.764Z169.421° S
|